User: anonymous   Login
Location: Bijele Vode
(45.2833°N, 16.2000°E)
Time: 21:54:52
(UTC+00:00)
Language:

XW-2D - Orbit

View from above orbital plane
View from above orbital plane
View from above satellite
View from above satellite

Ground track
Ground track

The orbit data is extracted from the following two-line orbital elements,

1 40907U 15049J   21339.49752554  .00002449  00000-0  12480-3 0  9995
2 40907  97.4897 339.6754 0012483 315.5164 169.2082 15.17662927343538
Epoch (UTC): 05 December 2021 11:56:26
Eccentricity: 0.0012483
inclination: 97.4897°
perigee height: 504 km
apogee height: 521 km
right ascension of ascending node: 339.6754°
argument of perigee: 315.5164°
revolutions per day: 15.17662927
mean anomaly at epoch: 169.2082°
orbit number at epoch: 34353

The dashed part of the orbit path shows where the satellite is in the earth's shadow,  

DLR